Location: Winthrop
(48.4780°N, 120.1850°W)
Time: 01:36:40
(UTC-07:00)

Transit 2A - Pass Details

Date: 17 June 2024
Orbit: 591 x 960 km, 66.7° (Epoch: 23 July)

Event Time Altitude Azimuth Distance (km) Brightness Sun altitude
Rises 01:27:18 0° 325° (NW) 3,474 10.2 -17.9°
Reaches altitude 10° 01:29:45 10° 328° (NNW) 2,577 9.4 -17.9°
Maximum altitude 01:35:49 69° 52° (NE) 1,001 6.7 -17.7°
Drops below altitude 10° 01:42:08 10° 136° (SE) 2,687 8.5 -17.6°
Enters shadow 01:42:26 - 136° (SE) 2,791 8.6 -17.6°
